Regional Weather Roundup
Issued by NWS

Home | Current Version | Previous Version | Graphics & Text | Print | Product List | Glossary On
Versions: 1 2 3 4 5 6 7 8 9 10 11 12 13 14 15 16 17 18 19 20 21 22 23 24 25 26 27 28
000
ASUS45 KBOU 191410
RWRCO

WEATHER ROUNDUP FOR COLORADO
NATIONAL WEATHER SERVICE DENVER/BOULDER CO
700 AM MST SUN NOV 19 2017

NOTE: "FAIR" INDICATES FEW OR NO CLOUDS BELOW 12000 FEET WITH NO
SIGNIFICANT WEATHER AND/OR OBSTRUCTIONS TO VISIBILITY.

COZ001>005-013-030-031-191500-
...NORTHWEST COLORADO...

CITY           SKY/WX    TMP DP  RH WIND       PRES   REMARKS
CRAIG          FAIR       8   4  83 CALM      30.32F
HAYDEN         FAIR      12   6  77 E15       30.32F WCI  -4
MEEKER         FAIR       9   5  84 MISG      30.32S
RABBIT EARS PA FAIR      18  10  73 W9G16     30.27F WCI   6
STEAMBOAT SPGS FAIR       9   6  87 CALM      30.32S
WALDEN         FAIR      10   1  67 SE8       30.27S WCI  -1
$$

COZ006>008-011-191500-
...WEST CENTRAL VALLEYS...

CITY           SKY/WX    TMP DP  RH WIND       PRES   REMARKS
GRAND JUNCTION FAIR      15  12  88 E3        30.37R
MONTROSE       FAIR      17  12  80 S7        30.39S WCI   8
EAGLE          FAIR      11   7  84 SE3       30.42S
RIFLE          FAIR      16  12  84 SE3       30.39S
DELTA          FAIR      19  13  79 CALM      30.39S
NUCLA          FAIR      18   9  68 E7        30.39S WCI   8
$$

COZ017>023-064>068-191500-
...SOUTHWEST COLORADO...

CITY           SKY/WX    TMP DP  RH WIND       PRES   REMARKS
DURANGO        FAIR      15  10  80 CALM      30.33R
CORTEZ         FAIR      10   6  84 NE6       30.35R WCI   0
PAGOSA SPRINGS FAIR      17  14  86 CALM      30.33S
TELLURIDE      FAIR      23   4  45 SE6       30.35S WCI  15
WOLF CREEK PAS FAIR      23 -13  20 W7        30.41S WCI  15
$$

COZ009-010-012-014-032>034-037-058>063-191500-
...CENTRAL COLORADO...

CITY           SKY/WX    TMP DP  RH WIND       PRES   REMARKS
ASPEN          FAIR      12   6  77 SE5       30.33R WCI   4
BUENA VISTA    FAIR      16   9  74 CALM      30.32R
COPPER MTN     FAIR      25  -8  24 MISG      30.32R
BERTHOUD PASS  FAIR      14   5  67 NW36G43   30.26R WCI  -8
COTTONWOOD PAS FAIR      32   0  25 NW5       30.29S WCI  27
GUNNISON       FAIR       6   1  80 CALM      30.45R
KREMMLING      FAIR      14  10  85 CALM      30.39R
LEADVILLE      FAIR      11   1  64 NE10      30.29R WCI  -3
MONARCH PASS   FAIR      18  -9  29 W31       30.42R WCI  -2
SALIDA         FAIR      21  10  63 N7        30.39R WCI  13
SUNLIGHT       FAIR      19  -6  32 SW12G17   30.36S WCI   7
WILKERSON PASS FAIR      25  -8  24 W12G20    30.32S WCI  14
$$

COZ069>075-191500-
...SAN LUIS VALLEY/SANGRE DE CRISTO MOUNTAINS...

CITY           SKY/WX    TMP DP  RH WIND       PRES   REMARKS
ALAMOSA        FAIR       5   2  87 N3        30.35S
DEL NORTE      FAIR      17   4  55 W12       30.36S WCI   4
LA VETA PASS   FAIR      21   7  53 SW29        N/A  WCI   3
SAGUACHE       NOT AVBL
$$

COZ035-036-038>040-191500-
...NORTHERN COLORADO FRONT RANGE...

CITY           SKY/WX    TMP DP  RH WIND       PRES   REMARKS
DENVER INTL AP MOCLDY    36  13  38 S13       30.14F
DMNS CITY PARK   N/A     33  13  44 SE9       30.15S WCI  25
AURORA         PTCLDY    32  15  50 S13       30.15F WCI  22
FRONT RANGE AP MOCLDY    39  14  35 S12G20    30.16S
ERIE MUNI ARPT FAIR      25  19  77 S3        30.19F
BOULDER MUN AP FAIR      25  19  80 NE6       30.13F WCI  18
CENTENNIAL     MOCLDY    40  10  29 S9        30.16S
BROOMFIELD     MOCLDY    28  18  64 E10       30.15F WCI  19
FORT COLLINS   FAIR      25  18  74 S5        30.15F WCI  19
LONGMONT       FAIR      24  19  79 NE3       30.17S
$$

COZ041-046-047-076>085-087-088-191500-
...PIKES PEAK/PALMER DIVIDE AND SOUTHERN FOOTHILLS...

CITY           SKY/WX    TMP DP  RH WIND       PRES   REMARKS
COLO. SPRINGS  MOCLDY    24  10  55 NE8       30.21S WCI  15
A. F. ACADEMY  FAIR      27   9  46 N3        30.20S
SCHRIEVER AFB  FAIR      29  13  52 CALM      30.21S
CHEYENNE MTN   FAIR      37   7  28 NW5       30.15S
ELLICOTT       NOT AVBL
FALCON         FAIR      31   4  31 W8        30.21S WCI  24
FORT CARSON    FAIR      26  13  59 NW6       30.19S WCI  19
LIMON          FAIR      15  13  91 N6        30.18S WCI   6
MONUMENT HILL  FAIR      32   9  37 SW12      30.20S WCI  23
CANON CITY     FAIR      37   9  30 NW12      30.20R
WALSENBURG     NOT AVBL
TRINIDAD       FAIR      25  14  63 W13       30.23R WCI  14
$$

COZ042>045-048>051-090-091-191500-
...NORTHEAST COLORADO...

CITY           SKY/WX    TMP DP  RH WIND       PRES   REMARKS
GREELEY ARPT   FAIR      19  15  84 CALM      30.16F
AKRON          FAIR      26  17  68 W12       30.14F WCI  16
BURLINGTON     FAIR      20  13  74 SW9       30.18F WCI   9
WRAY           NOT AVBL
YUMA           FAIR      21  16  79 SW9       30.15F WCI  11
STERLING       FAIR      18  14  86 SW6       30.15F WCI   9
HOLYOKE        FAIR      23  18  80 SW3       30.15S
FORT MORGAN    FAIR      15  12  88 SW3       30.16S
$$

COZ086-089-092>099-191500-
...SOUTHEAST COLORADO...

CITY           SKY/WX    TMP DP  RH WIND       PRES   REMARKS
PUEBLO         FAIR      21  17  84 NW9       30.21F WCI  11
LA JUNTA       FAIR      21  18  88 W10       30.21F WCI  10
LAMAR          FAIR      22  16  78 W7        30.22R WCI  13
SPRINGFIELD      N/A     28  21  75 W10       30.19F WCI  19
$$




USA.gov is the U.S. government's official web portal to all federal, state and local government web resources and services.